This is the latest recevied weather packets stored in our database for station/object KC5TIL. If no packets are shown the sender has not sent any weather packets the latest 10 day(s).
| Time | Temp. | Humidity | Pressure | Rain* | Wind** | Luminosity | Snow |
|---|---|---|---|---|---|---|---|
| 1777250180 | 27.78° C | 75% | 1005 hPa | 0 mm | - | 27 W/m² | - |
| 1777249877 | 27.78° C | 75% | 1005 hPa | 0 mm | - | 32 W/m² | - |
| 1777249568 | 27.78° C | 75% | 1005.2 hPa | 0 mm | - | 39 W/m² | - |
| 1777249264 | 27.78° C | 75% | 1005.2 hPa | 0 mm | - | 46 W/m² | - |
| 1777248962 | 28.33° C | 75% | 1005.3 hPa | 0 mm | - | 52 W/m² | - |
| 1777248657 | 28.33° C | 74% | 1005.3 hPa | 0 mm | - | 61 W/m² | - |
| 1777248354 | 28.33° C | 74% | 1005.4 hPa | 0 mm | - | 71 W/m² | - |
| 1777248050 | 28.33° C | 74% | 1005.2 hPa | 0 mm | - | 84 W/m² | - |
| 1777247749 | 28.89° C | 74% | 1005.4 hPa | 0 mm | - | 94 W/m² | - |
| 1777247446 | 28.89° C | 73% | 1005.2 hPa | 0 mm | - | 111 W/m² | - |
| 1777247144 | 28.89° C | 73% | 1005.5 hPa | 0 mm | - | 122 W/m² | - |
| 1777246841 | 28.89° C | 74% | 1005.2 hPa | 0 mm | - | 145 W/m² | - |
| 1777246537 | 28.89° C | 74% | 1005.3 hPa | 0 mm | - | 187 W/m² | - |
| 1777246234 | 28.33° C | 75% | 1005.4 hPa | 0 mm | - | 192 W/m² | - |
| 1777245932 | 28.33° C | 74% | 1005.4 hPa | 0 mm | - | 104 W/m² | - |
| 1777245630 | 28.33° C | 74% | 1005.5 hPa | 0 mm | - | 80 W/m² | - |
| 1777245327 | 28.33° C | 75% | 1005.3 hPa | 0 mm | - | 182 W/m² | - |
| 1777245022 | 28.89° C | 73% | 1005.5 hPa | 0 mm | - | 214 W/m² | - |
| 1777244717 | 28.89° C | 73% | 1005.4 hPa | 0 mm | - | 242 W/m² | - |
| 1777244414 | 28.33° C | 74% | 1005.5 hPa | 0 mm | - | 255 W/m² | - |
| 1777244110 | 28.33° C | 75% | 1005.6 hPa | 0 mm | - | 125 W/m² | - |
| 1777243810 | 28.89° C | 75% | 1005.8 hPa | 0 mm | - | 161 W/m² | - |
| 1777243505 | 28.89° C | 75% | 1005.7 hPa | 0 mm | - | 162 W/m² | - |
| 1777243201 | 28.33° C | 76% | 1005.7 hPa | 0 mm | - | 141 W/m² | - |
| 1777242896 | 28.33° C | 76% | 1005.9 hPa | 0 mm | - | 101 W/m² | - |
* Rain latest hour (hover to see other rain measurements)
** Current wind speed in m/s (hover to see current wind gust speed)